Regional Weather Roundup
Issued by NWS Goodland, KS

Home | Current Version | Previous Version | Text Only | Print | Product List | Glossary Off
Versions: 1 2 3 4 5 6 7 8 9 10 11 12 13 14 15 16 17 18 19 20 21 22 23 24 25 26 27 28 29 30 31 32 33 34 35 36 37 38 39 40 41 42 43 44 45 46 47 48 49 50

000
ASUS43 KGLD 030759
RWRGLD

GOODLAND FORECAST AREA HOURLY WEATHER ROUNDUP
NATIONAL WEATHER SERVICE GOODLAND KS
200 AM MDT THU SEP 03 2015

...OFFICIAL OBSERVATIONS...

CITY           SKY/WX    TMP DP  RH WIND       PRES   REMARKS
GOODLAND KS    PTCLDY    73  55  53 SW10      29.88F
HILL CITY KS   PTCLDY    78  58  49 S8        29.84F
IMPERIAL NEB   PTCLDY    66  56  70 SW3       29.86S
MCCOOK NEB     PTCLDY    73  56  54 S6        29.82F
AKRON CO       PTCLDY    69  39  33 SW3       29.96F
BURLINGTON CO  MOCLDY    62  52  69 W9        29.93F
LIMON CO       PTCLDY    54  46  74 CALM      30.03F
$$

...UNOFFICIAL OBSERVATIONS...

CITY           SKY/WX    TMP DP  RH WIND       PRES   REMARKS
COLBY KS       CLEAR     73  59  60 S9        29.88F
GOVE KS          N/A     78  32  18 MISG        N/A
LENORA KS        N/A     76  32  20 MISG        N/A
NORTON KS      CLEAR     75  54  46 S7        29.82F
TRENTON NEB      N/A     69  32  25 S8          N/A
$$


USA.gov is the U.S. government's official web portal to all federal, state and local government web resources and services.